COSMOS 1275 DEB

Satellite information

Favourite Embed

Satellite Type and Status

DEBRISIN ORBIT

Key statistics

Satellite COSMOS 1275 DEB at a glance.

Uptime

16045

Days in orbit

Revolutions

≈ 14.8

Per day

Orbit

LEO

Low Earth Orbit

Inclination

83.4

Latest

Satellite identification and parameters

Extended collection of information and parameters for COSMOS 1275 DEB.

Object identification

Identified? True

Debris? True

Object name: COSMOS 1275 DEB

International designator: 1981-053RH

Object number (NORAD): 42145

Object ID (CCSDS): 42145

Country: COMMONWEALTH OF INDEPENDENT STATES (CIS)

Current information (Y/N): Y

RCS size: SMALL

Orbital parameters

Period: 97.173 minutes

Inclination: 83.3509 deg

SMA: 7001.477 km

Apoapsis: 629.737 km

Periapsis: 616.947 km

RAAN: 95.2603 deg

Eccentricy: 0.0009134

Argument of periapsis: 299.2368 deg

Mean anomaly: 60.7935 deg

Mean motion: 14.81897921 rev/day

Mean motion (dot): 0.00021603 rev/day2

B* drag term: 0.0027196 1/REarth

Two-line elements (TLE)

Creation date: May 7, 2025, 3:14 a.m.

Reference frame: TEME

Reference center: EARTH

Epoch: May 6, 2025, 3:16 p.m. UTC

TLE line 0: 0 COSMOS 1275 DEB

TLE line 1: 1 42145U 81053RH 25126.63632433 .00021603 00000-0 27196-2 0 9998

TLE line 2: 2 42145 83.3509 95.2603 0009134 299.2368 60.7935 14.81897921603242

Live tracking on map

Real-time ground track for satellite COSMOS 1275 DEB.

In-orbit conjunctions

A list of the most updated potential collisions computed for object COSMOS 1275 DEB.

Target Orbit TCA Probability of collision Miss distance Type
FENGYUN 1C DEB SSO 2024-11-15 11:56:55 0.0001156515 487.0 (m) DEBRIS
FENGYUN 1C DEB SSO 2024-11-14 18:48:50 0.0002289084 480.0 (m) DEBRIS

Associated space launch

Navigation satellite providing location information for the Tsiklon-B navigation system

COSMOS 1275 DEB was lifted into orbit during the mission ‘Kosmos-3M | Parus 27’, on board a Kosmos-3M space rocket.

The launch took place on June 4, 1981, 3:41 p.m. from 132/2.

For more information about the launch, click the button.

Launch to space Kosmos-3M | Parus 27
Kosmos-3M | Parus 27

Agency: N/A

Status: Launch Successful

Launch date: June 4, 1981, 3:41 p.m. UTC

Rocket: Kosmos-3M

Launch pad: 132/2

Location: Plesetsk Cosmodrome, Russian Federation

...

Latest news about this satellite

There are no fresh news available about this satellite. Check back as we update our databases every day.


Newsletter sign-up

Weekly statistics, charts and insights to help you stay on top of the space industry.